Weather Service Report


327 
ASUS41 KBTV 300030
RWRBTV
VERMONT REGIONAL WEATHER ROUNDUP
NATIONAL WEATHER SERVICE BURLINGTON VT
800 PM EDT FRI APR 29 2016

NOTE: "FAIR" INDICATES FEW OR NO CLOUDS BELOW 12,000 FEET WITH NO 
SIGNIFICANT WEATHER AND/OR OBSTRUCTIONS TO VISIBILITY.

* THESE REPORTS ARE NOT UNDER NWS QUALITY CONTROL AND/OR DO NOT
  REPORT WEATHER SUCH AS PRECIPITATION AND FOG.

VTZ001>019-300100-
_____VERMONT_____

  
CITY           SKY/WX    TMP DP  RH WIND       PRES   REMARKS
BURLINGTON     CLOUDY    51  21  30 N9        30.08R                  
6HR MIN TEMP:  51; 6HR MAX TEMP:  57;                                

MONTPELIER     FAIR      51  25  36 CALM      30.09R                  
6HR MIN TEMP:  51; 6HR MAX TEMP:  58;                                

MORRISVILLE    FAIR      50  23  34 N3        30.08R                  
6HR MIN TEMP:  49; 6HR MAX TEMP:  58;                                

ST. JOHNSBURY*   N/A     55  23  28 MISG      30.04R                  
6HR MIN TEMP:  54; 6HR MAX TEMP:  60;                                

LYNDONVILLE*   FAIR      48  19  31 NE3       30.08R                  
6HR MIN TEMP:  49; 6HR MAX TEMP:  57;                                

MIDDLEBURY*    FAIR      48  26  43 N6        30.07R                  
6HR MIN TEMP:  49; 6HR MAX TEMP:  60;                                

RUTLAND*       FAIR      55  27  33 W5        30.05R                  
6HR MIN TEMP:  55; 6HR MAX TEMP:  61;                                

SPRINGFIELD    FAIR      55  33  43 CALM      30.05R                  
6HR MIN TEMP:  55; 6HR MAX TEMP:  61;                                

HIGHGATE*      FAIR      46  16  29 N7        30.11R                  
6HR MIN TEMP:  47; 6HR MAX TEMP:  55;                                

NEWPORT*       FAIR      46  22  39 N8        30.09R                  
6HR MIN TEMP:  46; 6HR MAX TEMP:  53;                                

BENNINGTON     CLOUDY    53  36  52 SW5       30.06R                  
6HR MIN TEMP:  53; 6HR MAX TEMP:  62;                                

GALLUP MILLS*    N/A     43 N/A N/A MISG        N/A                   
UNION VILLAGE*   N/A     50 N/A N/A MISG        N/A                   
MT. MANSFIELD*   N/A     39 N/A N/A W6          N/A                   

_____LAKE CHAMPLAIN_____

  
CITY           SKY/WX    TMP DP  RH WIND       PRES   REMARKS
COLCHESTER RF*   N/A     50  27  40 N12         N/A                   
DIAMOND ISL*     N/A     50  23  34 NW20        N/A                   

$$

NYZ007-026>031-035-052-083-087-300100-
_____NORTHERN NEW YORK_____

  
CITY           SKY/WX    TMP DP  RH WIND       PRES   REMARKS
PLATTSBURGH    CLOUDY    50  18  28 N12       30.10R                  
6HR MIN TEMP:  50; 6HR MAX TEMP:  53;                                

SARANAC LAKE   CLOUDY    45  20  36 NE8       30.05R                  
6HR MIN TEMP:  45; 6HR MAX TEMP:  58;                                

MASSENA        CLOUDY    48  19  31 E5        30.11R                  
6HR MIN TEMP:  47; 6HR MAX TEMP:  55;                                

OGDENSBURG*    CLEAR     48  25  40 NE3       30.11R                  
POTSDAM*       CLEAR    -17 -33  43 NE6       30.10  WCI -31          
STARK FALLS*     N/A     50 N/A N/A CALM        N/A                   
WATERTOWN      CLOUDY    53  25  33 N6        30.09R                  
6HR MIN TEMP:  53; 6HR MAX TEMP:  59;                                

FT DRUM        CLOUDY    51  25  35 NE9       30.08R                  
6HR MIN TEMP:  51; 6HR MAX TEMP:  57;                                

ALBANY         CLOUDY    55  34  45 S6        30.07R                  
6HR MIN TEMP:  55; 6HR MAX TEMP:  59; 6HR PCP: TRACE;                

GLENS FALLS    CLOUDY    57  36  45 SW7       30.05R                  
6HR MIN TEMP:  57; 6HR MAX TEMP:  62;                                


$$
NHZ002-005-011-300100-
_____NEW HAMPSHIRE_____

  
CITY           SKY/WX    TMP DP  RH WIND       PRES   REMARKS
LEBANON        PTCLDY    55  32  41 CALM      30.04R                  
6HR MIN TEMP:  54; 6HR MAX TEMP:  61;                                

KEENE          CLOUDY    55  34  44 S6        30.06R                  
6HR MIN TEMP:  55; 6HR MAX TEMP:  61;                                

MT WASHINGTON  MOCLDY    27  19  74 W12         N/A  WCI  16          
6HR MIN TEMP:  26; 6HR MAX TEMP:  31;                                

PLYMOUTH       FAIR      50  35  55 CALM      30.07R                  
WHITEFIELD     CLOUDY    47  33  58 CALM      30.05R                  
6HR MIN TEMP:  47; 6HR MAX TEMP:  58;                                


$$

_____REGIONAL QUEBEC LOCATIONS_____

  
CITY           SKY/WX    TMP DP  RH WIND       PRES   REMARKS
MONTREAL       CLOUDY    50  12  22 E10       30.11R                  
QUEBEC CITY    PTCLDY    45  14  29 W8        30.11R                  
SHERBROOKE     CLEAR     45  12  26 N5        30.09R                  

_____REGIONAL ONTARIO LOCATIONS_____

  
CITY           SKY/WX    TMP DP  RH WIND       PRES   REMARKS
OTTAWA         MOCLDY    52  18  25 E3        30.11R                  

______KEY______
VSB  - VISIBILITY IN MILES
WCI  - WIND CHILL INDEX
HX   - HEAT INDEX
$$
NNNN
  

Return to Home page


Western Regional Climate Center, wrcc@dri.edu